User: anonymous   Login
Location: Unspecified
(0.0000°N, 0.0000°E)
Time: 01:23:03
(UTC+00:00)
Language:

USA 136 - Orbit

View from above orbital plane
View from above orbital plane
View from above satellite
View from above satellite

Ground track
Ground track

The orbit data is extracted from the following two-line orbital elements,

1 25034U 97068A   20054.07782888 -.00000248  00000-0  00000-0 0    01
2 25034  63.4263 144.9969 6038581 280.4982  20.3971  2.00588020    03
Epoch (UTC): 23 February 2020 01:52:04
Eccentricity: 0.6038581
inclination: 63.4263°
perigee height: 4142 km
apogee height: 36217 km
right ascension of ascending node: 144.9969°
argument of perigee: 280.4982°
revolutions per day: 2.00588020
mean anomaly at epoch: 20.3971°
orbit number at epoch: 0

The dashed part of the orbit path shows where the satellite is in the earth's shadow,  

DLR